Flag for U.S.A. Weather past 2 weeks in Fairfax, Virginia, U.S.A.

Now
79 °F

Partly sunny.


Feels Like: 80 °F
Forecast: 67 / 77 °F
Wind: 8 mph from South

Location: Washington-Dulles International Airport

Current Time: Jul 31, 2014 at 8:45:10 PM

Latest Report: Jul 31, 2014 at 7:52 PM


Visibility: 10 mi

Pressure: 30.09 "Hg

Humidity: 50%

Dew point: 59 °F

Location of FairfaxLocation

Historic Weather in Fairfax — Graph

°F

Fairfax temperature yesterday

Maximum temperature yesterday: 77 °F (at 2:52 PM)
Minimum temperature yesterday: 49 °F (at 5:52 AM)
Average temperature yesterday: 65 °F

Past Weeks' High & Low Weather Summary

 TemperatureHumidityPressure
High92 °F (Jul 23, 2:52 PM)97% (Jul 28, 3:52 AM)30.24 "Hg (Jul 28, 3:52 AM)
Low49 °F (Jul 30, 5:52 AM)31% (Jul 26, 3:52 PM)29.59 "Hg (Jul 28, 3:52 AM)
Average72 °F67%30.01 "Hg
* Reported Jul 16 7:52 PM — Jul 31 7:52 PM, Fairfax, Weather by CustomWeather, © 2014

Note: Actual official high and low records may vary slightly from our data, if they occured in-between our weather recording intervals... More about our weather records

Advertising

Fairfax weather history for previous 24 hours

 ConditionsComfort  
Time TempWeatherWind HumidityBarometerVisibility
7:52 PM
Jul 31
79 °FPartly sunny.8 mph50%30.09 "Hg10 mi
6:52 PM82 °FBroken clouds.9 mph43%30.08 "Hg10 mi
5:52 PM85 °FBroken clouds.8 mph34%30.07 "Hg10 mi
4:52 PM84 °FPartly sunny.9 mph36%30.07 "Hg10 mi
3:52 PM82 °FScattered clouds.9 mph38%30.08 "Hg10 mi
2:52 PM84 °FScattered clouds.10 mph37%30.08 "Hg10 mi
1:52 PM83 °FScattered clouds.9 mph38%30.08 "Hg10 mi
12:52 PM81 °FScattered clouds.9 mph41%30.09 "Hg10 mi
11:52 AM79 °FScattered clouds.6 mph47%30.10 "Hg10 mi
10:52 AM77 °FPassing clouds.5 mph52%30.11 "Hg10 mi
9:52 AM72 °FSunny.No wind59%30.11 "Hg10 mi
8:52 AM67 °FScattered clouds.No wind76%30.11 "Hg10 mi
7:52 AM63 °FScattered clouds.3 mph87%30.10 "Hg10 mi
6:52 AM60 °FPassing clouds.No wind90%30.09 "Hg10 mi
5:52 AM59 °FPassing clouds.No wind90%30.08 "Hg10 mi
4:52 AM59 °FClear.No wind90%30.06 "Hg10 mi
3:52 AM58 °FClear.No wind93%30.06 "Hg10 mi
2:52 AM59 °FPassing clouds.No wind93%30.06 "Hg10 mi
1:52 AM64 °FMostly cloudy.6 mph81%30.08 "Hg10 mi
12:52 AM61 °FPassing clouds.3 mph83%30.06 "Hg10 mi
11:52 PM
Jul 30
63 °FPassing clouds.3 mph78%30.06 "Hg10 mi
10:52 PM66 °FPassing clouds.3 mph68%30.06 "Hg10 mi
9:52 PM67 °FPassing clouds.5 mph66%30.06 "Hg10 mi
8:52 PM70 °FPassing clouds.6 mph59%30.05 "Hg10 mi
Weather by CustomWeather, © 2014

See weather overviewHow to use our weather pages